Crane Lake, MN

12:47 PM CDT on June 22, 2017 (GMT -0500)
Crane Lake

Weather History for KCDD - June, 2013

Change the Weather History Date:

Friday, June 28, 2013

  Actual Average Record
Temperature  
Mean Temperature 67 °F -  
Max Temperature 75 °F 73 °F 89 °F (2001)
Min Temperature 59 °F 51 °F 37 °F (2016)
Cooling Degree Days 2    
Growing Degree Days 17 (Base 50)    
Moisture  
Dew Point 62 °F    
Average Humidity 95    
Maximum Humidity 100    
Minimum Humidity 78    
Precipitation  
Precipitation 0.13 in - - ()
Sea Level Pressure  
Sea Level Pressure 29.78 in    
Wind  
Wind Speed 3 mph (NNW)    
Max Wind Speed 10 mph    
Max Gust Speed 18 mph    
Visibility 9 miles    
Events Rain , Thunderstorm    
Averages and records for this station are not official NWS values.
T = Trace of Precipitation, MM = Missing Value Source: NWS Daily Summary

Daily Weather History Graph

Daily Weather History Graph

Search for Another Location

Airport or City:

Trip Planner

Search our weather history database for the weather conditions in past years. The results will help you decide how hot, cold, wet, or windy it might be!

Date:

Astronomy

Jun. 28, 2013 Rise Set
Actual Time 5:11 AM CDT 9:14 PM CDT
Civil Twilight 4:30 AM CDT 9:56 PM CDT
Nautical Twilight 3:32 AM CDT 10:54 PM CDT
Astronomical Twilight 1:49 AM CDT 12:35 AM CDT
Moon No Moon Rise 11:50 AM CDT (6/28)
Length of Visible Light 17h 25m
Length of Day
16h 02m
Waning Gibbous, 66% of the Moon is Illuminated
Jun 28
Waning Gibbous
Jun 29
Last Quarter
Jul 8
New
Jul 15
First Quarter
Jul 22
Full

Hourly Weather History & Observations

Time (CDT) Temp. Dew Point Humidity Pressure Visibility Wind Dir Wind Speed Gust Speed Precip Events Conditions
12:12 AM 60.8 °F 60.8 °F 100% 29.72 in 4.0 mi NW 3.5 mph - N/A Rain Light Rain
12:32 AM 60.8 °F 59.0 °F 94% 29.72 in 4.0 mi WNW 4.6 mph - N/A   Light Drizzle
12:52 AM 60.8 °F 59.0 °F 94% 29.72 in 5.0 mi Calm Calm - N/A   Overcast
1:32 AM 60.8 °F 59.0 °F 94% 29.71 in 10.0 mi Calm Calm - N/A   Overcast
1:52 AM 60.8 °F 60.8 °F 100% 29.71 in 10.0 mi Calm Calm - N/A   Overcast
2:12 AM 60.8 °F 59.0 °F 94% 29.71 in 5.0 mi Calm Calm - N/A   Overcast
2:32 AM 60.8 °F 59.0 °F 94% 29.71 in 10.0 mi Calm Calm - N/A   Overcast
2:52 AM 60.8 °F 59.0 °F 94% 29.71 in 5.0 mi Calm Calm - N/A   Overcast
3:12 AM 60.8 °F 59.0 °F 94% 29.70 in 2.5 mi West 3.5 mph - N/A   Drizzle
3:32 AM 60.8 °F 59.0 °F 94% 29.71 in 2.5 mi Calm Calm - N/A   Drizzle
3:52 AM 60.8 °F 59.0 °F 94% 29.70 in 5.0 mi Calm Calm - N/A   Overcast
4:12 AM 60.8 °F 59.0 °F 94% 29.71 in 4.0 mi West 3.5 mph - N/A Rain Light Rain
4:32 AM 60.8 °F 59.0 °F 94% 29.71 in 4.0 mi NW 3.5 mph - N/A Rain Light Rain
4:52 AM 60.8 °F 60.8 °F 100% 29.71 in 10.0 mi Calm Calm - N/A   Overcast
5:12 AM 60.8 °F 60.8 °F 100% 29.71 in 7.0 mi NW 3.5 mph - N/A   Overcast
5:32 AM 60.8 °F 60.8 °F 100% 29.72 in 10.0 mi NNW 3.5 mph - N/A   Overcast
5:52 AM 60.8 °F 60.8 °F 100% 29.72 in 10.0 mi North 4.6 mph - N/A   Overcast
6:12 AM 60.8 °F 60.8 °F 100% 29.73 in 10.0 mi NNW 5.8 mph - N/A   Overcast
6:32 AM 60.8 °F 60.8 °F 100% 29.73 in 10.0 mi NNW 5.8 mph - N/A   Overcast
6:52 AM 60.8 °F 60.8 °F 100% 29.74 in 10.0 mi NNW 6.9 mph - N/A   Overcast
7:12 AM 60.8 °F 60.8 °F 100% 29.75 in 10.0 mi NNW 5.8 mph - N/A   Overcast
7:32 AM 62.6 °F 60.8 °F 94% 29.75 in 10.0 mi NNW 6.9 mph - N/A   Overcast
7:52 AM 62.6 °F 62.6 °F 100% 29.75 in 10.0 mi NNW 6.9 mph - N/A   Overcast
8:12 AM 62.6 °F 62.6 °F 100% 29.76 in 10.0 mi NNW 6.9 mph - N/A   Mostly Cloudy
8:32 AM 64.4 °F 62.6 °F 94% 29.76 in 10.0 mi NNW 5.8 mph - N/A   Overcast
8:52 AM 64.4 °F 64.4 °F 100% 29.76 in 10.0 mi NNW 8.1 mph - N/A   Overcast
9:12 AM 64.4 °F 64.4 °F 100% 29.76 in 10.0 mi NNW 6.9 mph - N/A   Overcast
9:32 AM 64.4 °F 62.6 °F 94% 29.76 in 7.0 mi NNW 6.9 mph - N/A Rain Light Rain
9:52 AM 64.4 °F 62.6 °F 94% 29.77 in 10.0 mi NNW 5.8 mph - N/A   Overcast
10:12 AM 64.4 °F 62.6 °F 94% 29.77 in 4.0 mi NNW 4.6 mph - N/A Rain Rain
10:32 AM 62.6 °F 62.6 °F 100% 29.78 in 7.0 mi North 3.5 mph - N/A   Overcast
10:52 AM 64.4 °F 62.6 °F 94% 29.78 in 10.0 mi North 5.8 mph - N/A   Overcast
11:12 AM 66.2 °F 64.4 °F 94% 29.78 in 10.0 mi North 4.6 mph - N/A   Overcast
11:32 AM 68.0 °F 66.2 °F 94% 29.78 in 10.0 mi Calm Calm - N/A   Overcast
11:52 AM 69.8 °F 66.2 °F 88% 29.78 in 10.0 mi North 4.6 mph - N/A   Mostly Cloudy
12:12 PM 69.8 °F 68.0 °F 94% 29.79 in 10.0 mi North 6.9 mph - N/A   Mostly Cloudy
12:32 PM 69.8 °F 66.2 °F 88% 29.79 in 10.0 mi NW 6.9 mph - N/A   Mostly Cloudy
12:52 PM 69.8 °F 68.0 °F 94% 29.79 in 10.0 mi NNW 4.6 mph - N/A   Mostly Cloudy
1:12 PM 71.6 °F 69.8 °F 94% 29.79 in 10.0 mi North 8.1 mph - N/A   Mostly Cloudy
1:32 PM 71.6 °F 68.0 °F 88% 29.79 in 10.0 mi North 6.9 mph - N/A   Mostly Cloudy
1:52 PM 73.4 °F 69.8 °F 88% 29.79 in 10.0 mi NW 6.9 mph - N/A   Scattered Clouds
2:12 PM 75.2 °F 68.0 °F 78% 29.79 in 10.0 mi NNW 5.8 mph - N/A   Scattered Clouds
2:32 PM 71.6 °F 64.4 °F 78% 29.80 in 7.0 mi NNW 9.2 mph 18.4 mph N/A Rain Rain
2:52 PM 69.8 °F 66.2 °F 88% 29.79 in 10.0 mi NW 8.1 mph - 0.01 in   Scattered Clouds
3:12 PM 71.6 °F 68.0 °F 88% 29.79 in 10.0 mi NNW 10.4 mph - N/A   Scattered Clouds
3:32 PM 68.0 °F 62.6 °F 83% 29.80 in 10.0 mi North 4.6 mph - 0.02 in Rain Light Rain
3:52 PM 69.8 °F 66.2 °F 88% 29.80 in 10.0 mi NNW 5.8 mph - 0.02 in   Scattered Clouds
4:12 PM 66.2 °F 64.4 °F 94% 29.81 in 4.0 mi North 3.5 mph - 0.03 in Rain Light Rain
4:32 PM 64.4 °F 62.6 °F 94% 29.82 in 2.5 mi NNW 4.6 mph - 0.08 in Rain Heavy Rain
4:52 PM 64.4 °F 62.6 °F 94% 29.82 in 10.0 mi NNW 4.6 mph - 0.08 in Rain Light Rain
5:12 PM 66.2 °F 64.4 °F 94% 29.82 in 10.0 mi NNW 5.8 mph - N/A   Overcast
5:32 PM 68.0 °F 66.2 °F 94% 29.82 in 5.0 mi North 6.9 mph - 0.02 in Rain , Thunderstorm Rain
5:52 PM 64.4 °F 64.4 °F 100% 29.83 in 10.0 mi Calm Calm - 0.02 in   Mostly Cloudy
6:12 PM 66.2 °F 64.4 °F 94% 29.83 in 10.0 mi North 3.5 mph - N/A   Mostly Cloudy
6:32 PM 64.4 °F 62.6 °F 94% 29.84 in 10.0 mi NNW 3.5 mph - N/A   Light Drizzle
6:52 PM 64.4 °F 62.6 °F 94% 29.84 in 10.0 mi Calm Calm - N/A   Overcast
7:12 PM 64.4 °F 64.4 °F 100% 29.84 in 10.0 mi North 3.5 mph - N/A   Overcast
7:32 PM 64.4 °F 64.4 °F 100% 29.85 in 10.0 mi North 3.5 mph - N/A   Mostly Cloudy
7:52 PM 64.4 °F 64.4 °F 100% 29.85 in 10.0 mi Calm Calm - N/A   Mostly Cloudy
8:12 PM 64.4 °F 62.6 °F 94% 29.86 in 10.0 mi NNE 4.6 mph - N/A   Overcast
8:32 PM 64.4 °F 62.6 °F 94% 29.86 in 10.0 mi NNE 3.5 mph - N/A   Overcast
8:52 PM 64.4 °F 62.6 °F 94% 29.87 in 10.0 mi Calm Calm - N/A   Overcast
9:12 PM 62.6 °F 62.6 °F 100% 29.87 in 10.0 mi Calm Calm - N/A   Overcast
9:32 PM 62.6 °F 60.8 °F 94% 29.87 in 10.0 mi Calm Calm - N/A   Overcast
9:52 PM 60.8 °F 60.8 °F 100% 29.87 in 10.0 mi Calm Calm - N/A   Overcast
10:12 PM 59.0 °F 57.2 °F 94% 29.88 in 10.0 mi Calm Calm - N/A   Overcast
10:32 PM 59.0 °F 57.2 °F 94% 29.87 in 10.0 mi Calm Calm - N/A   Overcast
10:52 PM 59.0 °F 57.2 °F 94% 29.87 in 10.0 mi Calm Calm - N/A   Overcast
11:12 PM 59.0 °F 57.2 °F 94% 29.87 in 10.0 mi Calm Calm - N/A   Overcast
11:32 PM 59.0 °F 57.2 °F 94% 29.87 in 10.0 mi Calm Calm - N/A   Overcast
11:52 PM 59.0 °F 57.2 °F 94% 29.87 in 10.0 mi Calm Calm - N/A   Overcast